Location: Rio Tanui
(39.9167°N, 8.5167°E)
Time: 02:13:32
(UTC+00:00)

Cosmos 1825 - Pass Details

Date: 08 February 2023
Orbit: 480 x 487 km, 82.5° (Epoch: 01 April)

Event Time Altitude Azimuth Distance (km) Brightness Sun altitude
Rises 17:48:44 0° 211° (SSW) 2,567 6.4 -11.1°
Reaches altitude 10° 17:51:03 10° 223° (SW) 1,692 5.7 -11.6°
Maximum altitude 17:54:15 27° 283° (WNW) 974 4.4 -12.2°
Drops below altitude 10° 17:57:30 10° 344° (NNW) 1,706 4.9 -12.8°
Sets 17:59:51 0° 356° (N) 2,594 5.7 -13.2°
